Location: Newark
(11.2914°S, 14.4718°E)
Time: 05:54:09
(UTC+00:00)

Tiros 1 despin weight - Pass Details

Date: 24 September 2019
Orbit: 593 x 643 km, 48.2° (Epoch: 20 October)

Event Time Altitude Azimuth Distance (km) Brightness Sun altitude
Rises 20:24:01 0° 283° (WNW) 2,827 - -50.9°
Reaches altitude 10° 20:27:09 10° 260° (W) 1,937 - -51.6°
Maximum altitude 20:29:44 15° 224° (SW) 1,636 - -52.2°
Drops below altitude 10° 20:32:21 10° 188° (S) 1,959 - -52.8°
Sets 20:35:34 0° 165° (SSE) 2,879 - -53.6°
